Ana Sayfa
METAR-TAF:

METAR-TAF

Havaalanları :

Gastonia Municipal Airport

Gastonia, Kuzey Carolina, Amerika Birleşik Devletleri

Enlem: 35-11-48N, Boylam: 081-09-21W, yükseklik: 243 m

Güncel hava durumu gözlemi

Rapor saat 21:54 UTC de 54 dakika önce yapıldı.
Sakin rüzgar
Sıcaklık 25°C
Nem 89%
Basınç 1016 hPa
Görüş mesafesi: 16.1 km
4000 ft yükseklikte az bulutlu
8000 ft yükseklikte parçalı bulutlu
10000 ft yükseklikte parçalı çok bulutlu

METAR: KAKH 112154Z AUTO 00000KT 10SM FEW040 SCT080 BKN100 25/23 A3001 RMK AO2 RAB02E53 SLP156 P0004 T02500233

Saat: 18:48 (22:48 UTC)


TAF: eksik

4.000'den fazla havaalanı için hava durumu gözlemleri ve tahminleri (METAR ve TAF raporları).

Kullanılabilir istasyonlar harita üzerinde sarı ve kırmızı noktalarla gösterilir.

İstasyonun adını görmek için fareyi noktanın üzerinde gezdirin.

Sonrasında hava gözlem ve tahminlerini görmek için tıklayın.

Haritayı değiştirmek için: yaklaştırmak için siyah artı işaretli yeşil düğmeye ve uzaklaştırmak için de eksi işaretli düğmeye hızla tıklayın; bitişik haritalar için yeşil okları kullanın.


METAR-TAF: